map of YKS home
Great Circle Mapper logo
YKS - Airport
Location
City:  Yakutsk, Sakha, Russian Federation (Russia)
ICAO / IATA:UEEE / YKS

Details
Type:Airport (Aerodrome, Airfield)
Use:Public/Civil
Latitude:6205'36"N (62.093250)
Longitude:12946'14"E (129.770672)
Datum:WGS 1984
Elevation:325 ft (99 m)
Variation:15.6W (WMM2015 magnetic declination)
Runways:2
Longest:11155 × 197 ft (3400 × 60 m), paved

Time
Time Zone:UTC+9 (DST+10)

Weather
METAR:UEEE 192300Z 03002MPS 2400 -SN BR OVC200 M41/M45 Q1026 NOSIG RMK QFE760 23490150
TAF:UEEE 192000Z 1921/2103 VRB02MPS 2000 BR NSC TM44/1921Z
TEMPO 1921/2012 0300 FG VV003

Related Locations
Nearby:
Farthest:SAWB: 12183 mi / 19607 km
Base Marambio, Seymour Island, AQ

Find:

   beyond  
but within

Other Information
Maps:
NOTAMs:
Links:
Sources:

  
flag of Russian Federation (Russia)   

Sectional Chart

Flight Planning
at skyvector.com

Satellite Image

Google Maps Satellite View

 

Copyright © 2004-2014 Karl L. Swartz. All rights reserved.
The Great Circle Mapper name and logo are trademarks of the Great Circle Mapper.
All other trademarks mentioned herein belong to their respective owners.
Please see credits for attibutions and further copyright information.

  Follow gcmap on Facebook Follow gcmap on Twitter

hCard Microformat

Geo Microformat